GAOFEN-13 01

Last updated on Sat Mar 14 2026 00:02:57 GMT+0000 (Coordinated Universal Time)

1 46610U 20071A 26072.59347233 -.00000363 00000+0 00000+0 0 9991 2 46610 0.2725 85.5642 0042840 119.7463 297.8093 1.00270131 19962
UTC large
Height (km)
Speed (km/s)
/
Latitude / Longitude
Inclination (degrees)
Orbital Period (minutes)
Azimuth
Elevation
Range (km)
Doppler Factor

Next 0 passes for location: London (51.5072 / 0.1276)

Sorry there are no passes over London.